Weatherford, Texas, United States (76085)
Lat: 32.76N, Lon: 97.8W
Wx Zone: TXZ117
Local Info
Past Weather Observations for Yesterday

NOTE: This archive is for the closest National Weather Service station to Weatherford. Information may differ from the station used for current weather conditions.

Click here for Long-term Archive

Time Weather Temperature Dewpoint Humidity Pressure Winds Precip Visibility
23:53
Obscured
Fog
36°F / 2°C 36°F / 2°C 100% 30.12 in
(1020 mb)
SSE 4.6 mph
(SSE 7 kph)
0.00 in
(0.00 mm)
1/4SM
22:53
Obscured
Fog
36°F / 2°C 36°F / 2°C 100% 30.15 in
(1021 mb)
S 3.5 mph
(S 6 kph)
0.00 in
(0.00 mm)
1/4SM
21:53
Overcast
Light Rain
36°F / 2°C 36°F / 2°C 100% 30.15 in
(1021 mb)
S 3.5 mph
(S 6 kph)
0.00 in
(0.00 mm)
3/4SM
21:36
Overcast
Fog And Mist
36°F / 2°C 36°F / 2°C 100% 30.15 in
(1021 mb)
Calm 0.00 in
(0.00 mm)
3/4SM
20:53
Overcast
Fog And Mist
36°F / 2°C 36°F / 2°C 100% 30.15 in
(1021 mb)
Calm - 1 1/4SM
20:22
Overcast
Fog And Mist
36°F / 2°C 36°F / 2°C 100% 30.18 in
(1022 mb)
Calm - 1 3/4SM
19:53
Overcast
Fog And Mist
37°F / 3°C 36°F / 2°C 93% 30.18 in
(1022 mb)
Calm - 2 1/2SM
19:27
Overcast
Fog And Mist
36°F / 2°C 34°F / 1°C 93% 30.18 in
(1022 mb)
Calm - 3SM
18:53
Overcast
Fog And Mist
36°F / 2°C 34°F / 1°C 93% 30.18 in
(1022 mb)
Calm - 4SM
18:20
Overcast
Fog And Mist
37°F / 3°C 34°F / 1°C 87% 30.18 in
(1022 mb)
Calm - 3SM
17:53
Overcast
Fog And Mist
36°F / 2°C 34°F / 1°C 93% 30.18 in
(1022 mb)
Calm - 2 1/2SM
17:51
Overcast
Fog And Mist
36°F / 2°C 34°F / 1°C 93% 30.18 in
(1022 mb)
Calm - 2 1/2SM
16:53
Overcast
Fog And Mist
36°F / 2°C 34°F / 1°C 93% 30.18 in
(1022 mb)
Calm - 3SM
16:41
Overcast
Fog And Mist
36°F / 2°C 34°F / 1°C 93% 30.18 in
(1022 mb)
E 4.6 mph
(E 7 kph)
- 2 1/2SM
16:08
Overcast
Fog And Mist
36°F / 2°C 34°F / 1°C 93% 30.21 in
(1023 mb)
NE 3.5 mph
(NE 6 kph)
- 3SM
15:53
Overcast
Fog And Mist
36°F / 2°C 34°F / 1°C 93% 30.21 in
(1023 mb)
Calm - 3SM
15:40
Overcast
Fog And Mist
36°F / 2°C 34°F / 1°C 93% 30.21 in
(1023 mb)
N 3.5 mph
(N 6 kph)
- 3SM
14:53
Overcast
Fog And Mist
36°F / 2°C 34°F / 1°C 93% 30.21 in
(1023 mb)
N 5.8 mph
(N 9 kph)
- 2 1/2SM
14:51
Overcast
Fog And Mist
36°F / 2°C 34°F / 1°C 93% 30.21 in
(1023 mb)
N 6.9 mph
(N 11 kph)
- 2 1/2SM
14:37
Overcast
Fog And Mist
36°F / 2°C 34°F / 1°C 93% 30.24 in
(1024 mb)
N 6.9 mph
(N 11 kph)
- 3SM
13:53
Overcast
Fog And Mist
36°F / 2°C 34°F / 1°C 93% 30.27 in
(1025 mb)
NW 8.1 mph
(NW 13 kph)
- 2 1/2SM
13:45
Overcast
Fog And Mist
36°F / 2°C 34°F / 1°C 93% 30.27 in
(1025 mb)
NNW 6.9 mph
(NNW 11 kph)
- 2 1/2SM
13:35
Overcast
Fog And Mist
36°F / 2°C 34°F / 1°C 93% 30.27 in
(1025 mb)
NW 6.9 mph
(NW 11 kph)
- 2SM
12:53
Overcast
Fog And Mist
36°F / 2°C 32°F / 0°C 87% 30.33 in
(1027 mb)
NW 6.9 mph
(NW 11 kph)
- 3SM
12:45
Overcast
Fog And Mist
36°F / 2°C 30°F / -1°C 81% 30.33 in
(1027 mb)
NNW 8.1 mph
(NNW 13 kph)
- 3SM
12:29
Overcast
Fog And Mist
34°F / 1°C 32°F / 0°C 93% 30.33 in
(1027 mb)
NNW 5.8 mph
(NNW 9 kph)
- 3SM
11:53
Overcast
Fog And Mist
34°F / 1°C 32°F / 0°C 93% 30.33 in
(1027 mb)
N 5.8 mph
(N 9 kph)
- 3SM
11:04
Overcast
Fog And Mist
34°F / 1°C 34°F / 1°C 100% 30.36 in
(1028 mb)
NNW 4.6 mph
(NNW 7 kph)
- 3SM
10:53
Overcast
Fog And Mist
34°F / 1°C 32°F / 0°C 93% 30.36 in
(1028 mb)
N 4.6 mph
(N 7 kph)
- 2 1/2SM
10:46
Overcast
Fog And Mist
34°F / 1°C 34°F / 1°C 100% 30.36 in
(1028 mb)
N 5.8 mph
(N 9 kph)
- 2SM
10:25
Overcast
Fog And Mist
34°F / 1°C 32°F / 0°C 93% 30.36 in
(1028 mb)
NE 8.1 mph
(NE 13 kph)
- 2 1/2SM
10:07
Overcast
Fog And Mist
34°F / 1°C 32°F / 0°C 93% 30.36 in
(1028 mb)
N 5.8 mph
(N 9 kph)
- 1 1/2SM
09:53
Overcast
Fog And Mist
34°F / 1°C 32°F / 0°C 93% 30.39 in
(1029 mb)
N 6.9 mph
(N 11 kph)
- 1 3/4SM
09:51
Overcast
Fog And Mist
34°F / 1°C 32°F / 0°C 93% 30.39 in
(1029 mb)
N 6.9 mph
(N 11 kph)
- 1 3/4SM
09:01
Overcast
Fog And Mist
34°F / 1°C 30°F / -1°C 87% 30.39 in
(1029 mb)
N 9.2 mph
(N 15 kph)
- 1SM
08:53
Overcast
Fog And Mist
34°F / 1°C 32°F / 0°C 93% 30.39 in
(1029 mb)
N 9.2 mph
(N 15 kph)
- 3/4SM
08:28
Overcast
Fog And Mist
34°F / 1°C 30°F / -1°C 87% 30.39 in
(1029 mb)
N 9.2 mph
(N 15 kph)
- 1SM
07:53
Overcast
Fog And Mist
34°F / 1°C 30°F / -1°C 87% 30.39 in
(1029 mb)
N 10.4 mph
(N 17 kph)
- 3/4SM
07:31
Overcast
Fog And Mist
32°F / 0°C 30°F / -1°C 93% 30.39 in
(1029 mb)
N 9.2 mph
(N 15 kph)
- 3/4SM
07:20
Overcast
Fog And Mist
32°F / 0°C 30°F / -1°C 93% 30.39 in
(1029 mb)
NNW 9.2 mph
(NNW 15 kph)
- 1SM
07:09
Overcast
Fog And Mist
34°F / 1°C 30°F / -1°C 87% 30.36 in
(1028 mb)
NNW 9.2 mph
(NNW 15 kph)
- 1 1/2SM
06:53
Overcast
Fog And Mist
32°F / 0°C 30°F / -1°C 93% 30.36 in
(1028 mb)
N 8.1 mph
(N 13 kph)
- 2SM
06:43
Overcast
Fog And Mist
32°F / 0°C 30°F / -1°C 93% 30.36 in
(1028 mb)
N 9.2 mph
(N 15 kph)
- 2SM
06:24
Overcast
Fog And Mist
34°F / 1°C 30°F / -1°C 87% 30.36 in
(1028 mb)
N 6.9 mph
(N 11 kph)
- 1 3/4SM
06:12
Overcast
Fog And Mist
34°F / 1°C 30°F / -1°C 87% 30.36 in
(1028 mb)
N 9.2 mph
(N 15 kph)
- 2SM
06:01
Overcast
Fog And Mist
34°F / 1°C 30°F / -1°C 87% 30.36 in
(1028 mb)
N 9.2 mph
(N 15 kph)
- 1 3/4SM
05:53
Overcast
Fog And Mist
34°F / 1°C 30°F / -1°C 87% 30.36 in
(1028 mb)
N 8.1 mph
(N 13 kph)
- 2SM
05:36
Overcast
Fog And Mist
34°F / 1°C 30°F / -1°C 87% 30.36 in
(1028 mb)
N 10.4 mph
(N 17 kph)
- 2 1/2SM
04:53
Overcast
Fog And Mist
34°F / 1°C 30°F / -1°C 87% 30.36 in
(1028 mb)
NNW 10.4 mph
(NNW 17 kph)
- 4SM
04:13
Overcast
Fog And Mist
34°F / 1°C 30°F / -1°C 87% 30.36 in
(1028 mb)
N 8.1 mph
(N 13 kph)
- 3SM
03:53
Overcast
Fog And Mist
34°F / 1°C 32°F / 0°C 93% 30.36 in
(1028 mb)
N 6.9 mph
(N 11 kph)
- 2 1/2SM
03:42
Overcast
Fog And Mist
34°F / 1°C 32°F / 0°C 93% 30.36 in
(1028 mb)
N 6.9 mph
(N 11 kph)
- 2 1/2SM
03:28
Overcast
Fog And Mist
34°F / 1°C 30°F / -1°C 87% 30.36 in
(1028 mb)
N 6.9 mph
(N 11 kph)
- 3SM
03:11
Overcast
Fog And Mist
34°F / 1°C 32°F / 0°C 93% 30.36 in
(1028 mb)
N 8.1 mph
(N 13 kph)
- 2SM
02:53
Overcast
Fog And Mist
34°F / 1°C 32°F / 0°C 93% 30.36 in
(1028 mb)
N 6.9 mph
(N 11 kph)
- 2SM
02:49
Overcast
Fog And Mist
34°F / 1°C 32°F / 0°C 93% 30.39 in
(1029 mb)
N 5.8 mph
(N 9 kph)
- 2SM
02:41
Overcast
Fog And Mist
34°F / 1°C 32°F / 0°C 93% 30.39 in
(1029 mb)
N 6.9 mph
(N 11 kph)
- 1 3/4SM
02:23
Overcast
Fog And Mist
34°F / 1°C 32°F / 0°C 93% 30.39 in
(1029 mb)
N 6.9 mph
(N 11 kph)
- 2 1/2SM
02:10
Overcast
Fog And Mist
34°F / 1°C 32°F / 0°C 93% 30.39 in
(1029 mb)
N 9.2 mph
(N 15 kph)
- 1 3/4SM
01:53
Overcast
Fog And Mist
34°F / 1°C 32°F / 0°C 93% 30.39 in
(1029 mb)
N 8.1 mph
(N 13 kph)
- 2 1/2SM
01:36
Overcast
Fog And Mist
34°F / 1°C 32°F / 0°C 93% 30.39 in
(1029 mb)
N 9.2 mph
(N 15 kph)
- 2SM
01:29
Overcast
Fog And Mist
34°F / 1°C 32°F / 0°C 93% 30.39 in
(1029 mb)
N 6.9 mph
(N 11 kph)
- 1 3/4SM
01:20
Overcast
Fog And Mist
34°F / 1°C 32°F / 0°C 93% 30.39 in
(1029 mb)
N 8.1 mph
(N 13 kph)
- 2SM
00:53
Overcast
Fog And Mist
34°F / 1°C 32°F / 0°C 93% 30.39 in
(1029 mb)
N 9.2 mph
(N 15 kph)
- 4SM
00:35
Overcast
Fog And Mist
34°F / 1°C 34°F / 1°C 100% 30.39 in
(1029 mb)
N 8.1 mph
(N 13 kph)
- 3SM
Time Weather Temperature Dewpoint Humidity Pressure Winds Precip Visibility


Weather for websites

WeatherForYou.com, LLC is not responsible for any damages or problems caused by this service. Current weather conditions are obtained from the closest station including government and personal stations which may have varying degrees of accuracy. Weather forecasts are derived from the NOAA NDFD. Like all things, this site belongs to Jesus Christ... He just trusts me to maintain it. If you have any questions or comments email webmaster@weatherforyou.com

Copyright © 2015, WeatherForYou.com LLC. All rights reserved.